Zurück zum Katalog

FENGYUN 1C DEB

AktivPO
NORAD 31546·DEBRIS·🇨🇳 China

Gestartet May 10, 1999 von Taiyuan Satellite Launch Center

Loading…

Nächste Überflüge (nächste 24 Stunden)

TLE

AktuellSource: Space-Track

Epoche: Sep 14, 2026, 21:20 UTC

1 31546U 99025BYM 26257.88954263  .00001604  00000-0  77406-3 0  9999
2 31546  98.2249 310.8460 0142605  58.6038 302.8995 14.14675720986911

Verfolge FENGYUN 1C DEB in Echtzeit mit AllMySat

Download on the App Store